CW1988 Weather Reports


Display with metric or nautical units.
time (UTC)temp
F
wind
direction
speed
MPH
gust
MPH
rain 1hr
in
rain 24hr
in
rain mn
in
humidity
%
barometer
mb
20260506185346 55 181 0.0 0.0 0.00 0.00 0.00 41 1014.2
20260506184842 55 181 0.0 0.0 0.00 0.00 0.00 38 1014.1
20260506184339 54 181 1.0 1.0 0.00 0.00 0.00 39 1014.2
20260506183832 54 181 0.0 0.0 0.00 0.00 0.00 42 1013.9
20260506183327 55 181 2.0 2.0 0.00 0.00 0.00 39 1014.1
20260506182825 55 181 0.0 0.0 0.00 0.00 0.00 39 1014.1
20260506182321 55 181 0.0 0.0 0.00 0.00 0.00 46 1014.0
20260506181819 55 181 1.0 2.0 0.00 0.00 0.00 38 1014.1
20260506181316 55 181 0.0 0.0 0.00 0.00 0.00 40 1014.1
20260506180813 55 181 0.0 0.0 0.00 0.00 0.00 43 1013.9
20260506180309 54 181 0.0 0.0 0.00 0.00 0.00 42 1014.1
20260506175805 53 181 0.0 1.0 0.00 0.00 0.00 40 1014.0
20260506175305 53 181 2.0 2.0 0.00 0.00 0.00 39 1014.2
20260506174800 53 181 0.0 0.0 0.00 0.00 0.00 40 1014.1
20260506174257 53 181 1.0 1.0 0.00 0.00 0.00 39 1014.1
20260506173754 53 181 2.0 2.0 0.00 0.00 0.00 40 1014.5
20260506173251 53 181 0.0 1.0 0.00 0.00 0.00 40 1014.3
20260506172748 54 181 0.0 0.0 0.00 0.00 0.00 38 1014.3
20260506172244 54 181 0.0 0.0 0.00 0.00 0.00 48 1014.5
20260506171742 54 181 0.0 0.0 0.00 0.00 0.00 39 1014.5
20260506171239 53 181 0.0 0.0 0.00 0.00 0.00 43 1014.5
20260506170737 55 181 0.0 1.0 0.00 0.00 0.00 38 1014.5
20260506170233 56 181 1.0 1.0 0.00 0.00 0.00 40 1014.5
20260506165732 55 181 1.0 1.0 0.00 0.00 0.00 47 1014.5
20260506165228 54 181 0.0 0.0 0.00 0.00 0.00 44 1014.6
20260506164726 52 181 0.0 0.0 0.00 0.00 0.00 41 1014.6
20260506164222 53 181 0.0 0.0 0.00 0.00 0.00 40 1014.7
20260506163719 54 181 1.0 2.0 0.00 0.00 0.00 43 1014.6
20260506163214 54 181 1.0 1.0 0.00 0.00 0.00 43 1014.5
20260506162710 54 181 1.0 2.0 0.00 0.00 0.00 39 1014.6
20260506162208 54 181 2.0 2.0 0.00 0.00 0.00 43 1014.6
20260506161705 53 181 0.0 1.0 0.00 0.00 0.00 42 1014.5
20260506161201 54 181 0.0 1.0 0.00 0.00 0.00 43 1014.5
20260506160654 55 181 0.0 0.0 0.00 0.00 0.00 45 1014.7
20260506160151 54 181 0.0 0.0 0.00 0.00 0.00 40 1014.7
20260506155650 52 181 1.0 1.0 0.00 0.00 0.00 41 1014.5
20260506155146 53 181 0.0 0.0 0.00 0.00 0.00 43 1014.4
20260506153253 53 181 0.0 0.0 0.00 0.00 0.00 41 1014.5
20260506152750 53 181 0.0 0.0 0.00 0.00 0.00 41 1014.4
20260506152248 54 181 0.0 0.0 0.00 0.00 0.00 42 1014.5
20260506151746 56 181 0.0 1.0 0.00 0.00 0.00 36 1014.4
20260506151243 57 180 0.0 0.0 0.00 0.00 0.00 36 1014.4
20260506150739 57 181 0.0 1.0 0.00 0.00 0.00 36 1014.3
20260506150237 59 181 1.0 1.0 0.00 0.00 0.00 35 1014.3
20260506145733 59 180 0.0 1.0 0.00 0.00 0.00 34 1014.4
20260506145230 59 180 0.0 0.0 0.00 0.00 0.00 36 1014.6
20260506144727 59 180 1.0 1.0 0.00 0.00 0.00 35 1014.5
20260506144224 58 180 0.0 1.0 0.00 0.00 0.00 35 1014.4
20260506143721 57 180 0.0 0.0 0.00 0.00 0.00 36 1014.5
20260506143219 57 180 1.0 1.0 0.00 0.00 0.00 37 1014.6
20260506142718 57 181 0.0 1.0 0.00 0.00 0.00 38 1014.5
20260506142215 56 181 1.0 2.0 0.00 0.00 0.00 39 1014.4
20260506141713 57 181 0.0 0.0 0.00 0.00 0.00 40 1014.4
20260506141211 56 181 0.0 0.0 0.00 0.00 0.00 40 1014.5
20260506140708 55 181 0.0 0.0 0.00 0.00 0.00 41 1014.3
20260506140205 54 181 0.0 0.0 0.00 0.00 0.00 44 1014.4
20260506135702 54 181 0.0 0.0 0.00 0.00 0.00 45 1014.3
20260506135158 55 181 1.0 1.0 0.00 0.00 0.00 44 1014.2
20260506134655 55 181 0.0 0.0 0.00 0.00 0.00 45 1014.3
20260506134151 54 181 0.0 0.0 0.00 0.00 0.00 46 1014.1
20260506133648 53 181 0.0 0.0 0.00 0.00 0.00 46 1014.4
20260506133145 53 181 0.0 0.0 0.00 0.00 0.00 47 1014.3
20260506132643 54 181 0.0 0.0 0.00 0.00 0.00 48 1014.2
20260506132139 54 181 0.0 0.0 0.00 0.00 0.00 45 1014.4
20260506131637 52 181 0.0 0.0 0.00 0.00 0.00 48 1014.2
20260506131133 51 181 0.0 0.0 0.00 0.00 0.00 51 1014.1
20260506130630 48 181 0.0 0.0 0.00 0.00 0.00 55 1014.1
20260506130127 46 181 0.0 0.0 0.00 0.00 0.00 63 1014.1
20260506125625 45 181 0.0 0.0 0.00 0.00 0.00 67 1014.1
20260506125123 44 181 0.0 0.0 0.00 0.00 0.00 71 1014.0
20260506124620 43 181 0.0 0.0 0.00 0.00 0.00 72 1014.1
20260506124118 42 181 0.0 0.0 0.00 0.00 0.00 76 1013.8
20260506123616 41 181 0.0 0.0 0.00 0.00 0.00 77 1013.8
20260506123114 40 181 0.0 0.0 0.00 0.00 0.00 75 1013.7
20260506122610 39 181 0.0 0.0 0.00 0.00 0.00 75 1013.9
20260506122108 38 181 0.0 0.0 0.00 0.00 0.00 74 1013.6
20260506121606 38 181 0.0 0.0 0.00 0.00 0.00 75 1013.8
20260506121102 38 181 0.0 0.0 0.00 0.00 0.00 74 1013.7
20260506120600 37 181 0.0 0.0 0.00 0.00 0.00 77 1013.7
20260506120057 36 181 0.0 0.0 0.00 0.00 0.00 80 1013.8
20260506115555 36 181 0.0 0.0 0.00 0.00 0.00 81 1013.9
20260506115053 35 181 0.0 0.0 0.00 0.00 0.00 81 1013.8
20260506114550 35 181 0.0 0.0 0.00 0.00 0.00 81 1013.6
20260506114048 35 181 0.0 0.0 0.00 0.00 0.00 82 1013.6
20260506113546 35 182 0.0 0.0 0.00 0.00 0.00 82 1013.5
20260506113043 35 182 0.0 0.0 0.00 0.00 0.00 82 1013.5
20260506112539 34 182 0.0 0.0 0.00 0.00 0.00 82 1013.4
20260506112037 34 182 0.0 0.0 0.00 0.00 0.00 82 1013.3
20260506111535 34 182 0.0 0.0 0.00 0.00 0.00 82 1013.5
20260506111032 34 182 0.0 0.0 0.00 0.00 0.00 83 1013.3
20260506110530 34 182 0.0 0.0 0.00 0.00 0.00 83 1013.4
20260506110027 34 182 0.0 0.0 0.00 0.00 0.00 83 1013.3
20260506105522 34 182 0.0 0.0 0.00 0.00 0.00 83 1013.2
20260506105020 33 182 0.0 0.0 0.00 0.00 0.00 83 1013.2
20260506104518 33 182 0.0 0.0 0.00 0.00 0.00 83 1012.9
20260506104016 33 182 0.0 0.0 0.00 0.00 0.00 82 1013.1
20260506103513 33 182 0.0 0.0 0.00 0.00 0.00 82 1013.1
20260506103009 33 182 0.0 0.0 0.00 0.00 0.00 81 1012.8
20260506102508 34 182 0.0 0.0 0.00 0.00 0.00 81 1013.0
20260506102004 34 182 0.0 0.0 0.00 0.00 0.00 81 1012.8
20260506101501 34 182 0.0 0.0 0.00 0.00 0.00 81 1012.8
20260506100958 34 182 0.0 0.0 0.00 0.00 0.00 80 1012.8
20260506100457 34 182 0.0 0.0 0.00 0.00 0.00 80 1012.8
20260506095954 34 182 0.0 0.0 0.00 0.00 0.00 81 1012.8
20260506095453 34 182 0.0 0.0 0.00 0.00 0.00 82 1012.8
20260506094948 33 182 0.0 0.0 0.00 0.00 0.00 81 1013.0
20260506094447 33 182 0.0 0.0 0.00 0.00 0.00 80 1012.9
20260506093944 34 182 0.0 0.0 0.00 0.00 0.00 81 1013.0
20260506093442 34 182 0.0 0.0 0.00 0.00 0.00 81 1013.0
20260506092940 34 182 0.0 0.0 0.00 0.00 0.00 81 1012.9
20260506092437 34 182 0.0 0.0 0.00 0.00 0.00 81 1013.1
20260506091934 34 182 0.0 0.0 0.00 0.00 0.00 79 1013.1
20260506091432 34 182 0.0 0.0 0.00 0.00 0.00 80 1013.2
20260506090929 34 182 0.0 0.0 0.00 0.00 0.00 81 1013.0
20260506090426 34 181 0.0 0.0 0.00 0.00 0.00 80 1013.0
20260506085923 34 181 0.0 0.0 0.00 0.00 0.00 79 1012.9
20260506085420 34 181 0.0 0.0 0.00 0.00 0.00 78 1012.8
20260506084916 34 181 0.0 0.0 0.00 0.00 0.00 77 1012.8
20260506084413 35 181 0.0 0.0 0.00 0.00 0.00 78 1012.9
20260506083909 34 181 0.0 0.0 0.00 0.00 0.00 77 1012.7
20260506083407 34 181 0.0 0.0 0.00 0.00 0.00 77 1012.7
20260506082904 35 181 0.0 0.0 0.00 0.00 0.00 78 1012.8
20260506082401 35 181 0.0 0.0 0.00 0.00 0.00 77 1012.7
20260506081856 35 181 0.0 0.0 0.00 0.00 0.00 78 1012.6
20260506081355 35 181 0.0 0.0 0.00 0.00 0.00 78 1012.7
20260506080852 35 181 0.0 0.0 0.00 0.00 0.00 78 1012.5
20260506080349 35 181 0.0 0.0 0.00 0.00 0.00 77 1012.4
20260506073333 36 181 0.0 0.0 0.00 0.00 0.00 74 1012.5
20260506072829 36 181 0.0 0.0 0.00 0.00 0.00 74 1012.2
20260506072327 36 181 0.0 0.0 0.00 0.00 0.00 73 1012.2
20260506071825 36 181 0.0 0.0 0.00 0.00 0.00 72 1012.5
20260506071323 36 181 0.0 0.0 0.00 0.00 0.00 71 1012.4
20260506070819 37 181 0.0 0.0 0.00 0.00 0.00 72 1012.3
20260506070316 37 181 0.0 0.0 0.00 0.00 0.00 71 1012.3
20260506062253 38 181 0.0 0.0 0.00 0.00 0.00 68 1012.7
20260506061749 39 181 0.0 0.0 0.00 0.00 0.00 67 1012.5
20260506061247 39 181 0.0 0.0 0.00 0.00 0.00 67 1012.5
20260506060745 39 181 0.0 0.0 0.00 0.00 0.00 66 1012.4
20260506060242 39 181 0.0 0.0 0.00 0.00 0.00 66 1012.3
20260506051209 41 181 0.0 0.0 0.00 0.00 0.00 61 1012.7
20260506050707 41 181 0.0 0.0 0.00 0.00 0.00 60 1012.8
20260506050204 41 181 0.0 0.0 0.00 0.00 0.00 59 1012.7
20260506044655 42 181 0.0 0.0 0.00 0.00 0.00 59 1012.7
20260506044151 42 181 0.0 0.0 0.00 0.00 0.00 58 1012.6
20260506043649 43 181 0.0 0.0 0.00 0.00 0.00 56 1012.6
20260506043147 43 181 0.0 0.0 0.00 0.00 0.00 54 1012.5
20260506042646 44 181 0.0 0.0 0.00 0.00 0.00 53 1012.6
20260506042143 44 181 0.0 0.0 0.00 0.00 0.00 50 1012.5
20260506041641 45 181 0.0 0.0 0.00 0.00 0.00 50 1012.4
20260506041137 45 181 0.0 0.0 0.00 0.00 0.00 51 1012.4
20260506040635 45 181 0.0 0.0 0.00 0.00 0.00 49 1012.2
20260506040132 45 181 0.0 0.0 0.00 0.00 0.00 49 1012.2
20260506035629 46 181 0.0 0.0 0.00 0.00 0.00 49 1012.2
20260506035125 46 181 0.0 0.0 0.00 0.00 0.00 48 1012.2
20260506034623 46 181 0.0 0.0 0.00 0.00 0.00 47 1012.3
20260506034120 46 181 0.0 0.0 0.00 0.00 0.00 47 1012.1
20260506033617 46 181 0.0 0.0 0.00 0.00 0.00 46 1012.2
20260506033114 46 181 0.0 0.0 0.00 0.00 0.00 46 1012.2
20260506032612 47 181 0.0 0.0 0.00 0.00 0.00 45 1012.3
20260506032108 47 181 0.0 0.0 0.00 0.00 0.00 45 1012.2
20260506031605 47 181 0.0 0.0 0.00 0.00 0.00 45 1012.2
20260506031102 47 181 0.0 0.0 0.00 0.00 0.00 45 1012.3
20260506030601 47 181 0.0 0.0 0.00 0.00 0.00 46 1012.0
20260506030058 47 181 0.0 0.0 0.00 0.00 0.00 45 1012.0
20260506025554 47 181 0.0 0.0 0.00 0.00 0.00 45 1012.2
20260506025050 48 181 0.0 0.0 0.00 0.00 0.00 45 1012.0
20260506024547 48 181 0.0 0.0 0.00 0.00 0.00 45 1012.0
20260506024044 48 181 0.0 0.0 0.00 0.00 0.00 44 1012.0
20260506023539 48 181 0.0 0.0 0.00 0.00 0.00 44 1011.8
20260506023037 48 181 0.0 0.0 0.00 0.00 0.00 43 1011.7
20260506022534 49 181 0.0 0.0 0.00 0.00 0.00 44 1011.7
20260506022027 49 181 0.0 0.0 0.00 0.00 0.00 44 1011.3
20260506021524 49 181 0.0 0.0 0.00 0.00 0.00 43 1011.5
20260506021021 49 181 0.0 0.0 0.00 0.00 0.00 41 1011.2
20260506020518 50 181 0.0 1.0 0.00 0.00 0.00 40 1011.1
20260506020016 50 181 0.0 0.0 0.00 0.00 0.00 41 1011.3
20260506015513 50 181 0.0 0.0 0.00 0.00 0.00 41 1011.1
20260506015010 50 181 0.0 0.0 0.00 0.00 0.00 41 1010.9
20260506014508 50 181 0.0 0.0 0.00 0.00 0.00 40 1010.7
20260506014003 50 181 0.0 0.0 0.00 0.00 0.00 40 1010.6
20260506013501 51 181 0.0 0.0 0.00 0.00 0.00 39 1010.6
20260506012957 51 181 0.0 0.0 0.00 0.00 0.00 39 1010.3
20260506012454 51 181 0.0 0.0 0.00 0.00 0.00 39 1010.3
20260506011951 51 181 0.0 0.0 0.00 0.00 0.00 39 1010.3
20260506011448 51 181 0.0 0.0 0.00 0.00 0.00 39 1010.1
20260506010944 51 181 0.0 0.0 0.00 0.00 0.00 39 1010.2
20260506010444 51 181 0.0 0.0 0.00 0.00 0.00 38 1010.2
20260506005939 52 182 0.0 0.0 0.00 0.00 0.00 38 1010.2
20260506005437 52 182 0.0 0.0 0.00 0.00 0.00 37 1010.0
20260506004932 52 182 0.0 1.0 0.00 0.00 0.00 37 1010.1
20260506004430 52 182 0.0 0.0 0.00 0.00 0.00 36 1010.1
20260506003925 53 182 0.0 0.0 0.00 0.00 0.00 37 1009.9
20260506003422 53 182 1.0 1.0 0.00 0.00 0.00 36 1009.9
20260506002919 53 182 0.0 0.0 0.00 0.00 0.00 38 1009.7
20260506002415 53 182 0.0 0.0 0.00 0.00 0.00 36 1009.7
20260506001910 53 182 1.0 1.0 0.00 0.00 0.00 35 1009.7
20260506001408 54 182 1.0 2.0 0.00 0.00 0.00 35 1009.7
20260506000905 54 182 0.0 0.0 0.00 0.00 0.00 35 1009.5
20260506000403 54 182 0.0 0.0 0.00 0.00 0.00 36 1009.6
20260505235859 54 182 0.0 0.0 0.00 0.00 0.00 35 1009.5
20260505235357 54 182 0.0 0.0 0.00 0.00 0.00 34 1009.5
20260505234853 55 182 0.0 0.0 0.00 0.00 0.00 35 1009.5
20260505234351 55 182 0.0 0.0 0.00 0.00 0.00 34 1009.5
20260505233848 55 182 0.0 0.0 0.00 0.00 0.00 34 1009.5
20260505233346 55 182 1.0 1.0 0.00 0.00 0.00 33 1009.4
20260505232843 55 181 1.0 1.0 0.00 0.00 0.00 33 1009.5
20260505232341 56 181 0.0 0.0 0.00 0.00 0.00 34 1009.5
20260505231837 56 181 0.0 1.0 0.00 0.00 0.00 32 1009.5
20260505231335 56 181 0.0 0.0 0.00 0.00 0.00 33 1009.3
20260505230833 56 181 0.0 0.0 0.00 0.00 0.00 36 1009.5
20260505230330 56 181 0.0 0.0 0.00 0.00 0.00 34 1009.7
20260505225826 56 181 0.0 0.0 0.00 0.00 0.00 34 1009.4
20260505225324 56 181 1.0 1.0 0.00 0.00 0.00 32 1009.6
20260505224819 56 181 0.0 0.0 0.00 0.00 0.00 34 1009.5
20260505224317 57 181 1.0 2.0 0.00 0.00 0.00 33 1009.4
20260505223814 57 181 1.0 1.0 0.00 0.00 0.00 32 1009.5
20260505223311 57 181 1.0 1.0 0.00 0.00 0.00 32 1009.4
20260505222801 56 181 0.0 0.0 0.00 0.00 0.00 33 1009.4
20260505222258 56 181 0.0 1.0 0.00 0.00 0.00 32 1009.4
20260505221755 57 181 1.0 2.0 0.00 0.00 0.00 32 1009.2
20260505221251 57 181 1.0 1.0 0.00 0.00 0.00 33 1009.2
20260505220748 57 182 2.0 2.0 0.00 0.00 0.00 32 1009.1
20260505220245 57 181 1.0 1.0 0.00 0.00 0.00 33 1009.0
20260505215744 57 181 0.0 1.0 0.00 0.00 0.00 33 1009.2
20260505215241 58 181 1.0 1.0 0.00 0.00 0.00 31 1009.2
20260505214738 58 181 1.0 1.0 0.00 0.00 0.00 32 1009.1
20260505214236 58 181 0.0 0.0 0.00 0.00 0.00 35 1009.2
20260505213733 58 181 0.0 0.0 0.00 0.00 0.00 33 1009.4
20260505213230 58 181 2.0 2.0 0.00 0.00 0.00 32 1009.2
20260505212726 58 181 1.0 1.0 0.00 0.00 0.00 35 1009.3
20260505212224 58 181 1.0 2.0 0.00 0.00 0.00 32 1009.2
20260505211720 57 181 0.0 0.0 0.00 0.00 0.00 35 1009.1
20260505211218 57 181 0.0 1.0 0.00 0.00 0.00 36 1009.2
20260505210714 58 181 2.0 3.0 0.00 0.00 0.00 32 1009.3
20260505210211 57 181 0.0 1.0 0.00 0.00 0.00 33 1009.2
20260505205708 57 181 0.0 0.0 0.00 0.00 0.00 35 1009.3
20260505205207 57 181 0.0 0.0 0.00 0.00 0.00 35 1009.4
20260505204702 58 181 1.0 2.0 0.00 0.00 0.00 34 1009.3
20260505204200 57 181 0.0 1.0 0.00 0.00 0.00 34 1009.5
20260505203657 57 181 1.0 2.0 0.00 0.00 0.00 34 1009.4
20260505203154 57 181 1.0 3.0 0.00 0.00 0.00 35 1009.5
20260505202649 57 181 1.0 2.0 0.00 0.00 0.00 37 1009.5
20260505202146 56 181 0.0 0.0 0.00 0.00 0.00 35 1009.6
20260505201642 56 181 1.0 1.0 0.00 0.00 0.00 35 1009.6
20260505201141 56 181 0.0 1.0 0.00 0.00 0.00 34 1009.7
20260505200638 57 181 2.0 3.0 0.00 0.00 0.00 34 1009.8
20260505200135 57 181 1.0 1.0 0.00 0.00 0.00 36 1009.8
20260505195631 58 181 1.0 2.0 0.00 0.00 0.00 33 1009.8
20260505195128 57 181 2.0 2.0 0.00 0.00 0.00 34 1009.8
20260505194620 56 181 0.0 0.0 0.00 0.00 0.00 37 1009.9
20260505194116 56 181 1.0 2.0 0.00 0.00 0.00 33 1009.8
20260505193613 56 181 1.0 2.0 0.00 0.00 0.00 34 1009.9
20260505193110 57 181 1.0 1.0 0.00 0.00 0.00 33 1010.0
20260505192609 57 181 1.0 2.0 0.00 0.00 0.00 34 1009.7
20260505192105 57 181 0.0 1.0 0.00 0.00 0.00 34 1009.8
20260505191603 56 181 1.0 1.0 0.00 0.00 0.00 33 1009.8
20260505191101 57 181 0.0 1.0 0.00 0.00 0.00 35 1010.0
20260505190556 57 181 1.0 1.0 0.00 0.00 0.00 35 1009.7
20260505190052 57 181 2.0 2.0 0.00 0.00 0.00 35 1009.7
20260505185549 57 181 1.0 2.0 0.00 0.00 0.00 36 1009.5